[[{"header":{"parameterUnit":"m.s-1","parameterCategory":1,"la1":30.2991,"la2":30.254,"lo1":-89.0895,"lo2":-89.0444,"dy":0.0017,"dx":0.0017,"nx":28,"ny":28,"refTime":"2025-02-25T03:00:00:Z","depth":0,"parameterNumber":2,"parameterNumberName":"U-component_of_WINDS"},"data":[0,0,0,0,0,0,0,0,0,0,0,0,0,0,0,0,0,0,0,0,0,0,0,0,0,0,0,0,0,0,0,0,0,0,0,0,0,0,0,0,0,0,0,0,0,0,0,0,0,0,0,0,0,0,0,0,0,0,-0.8298,-0.8298,0,-0.8259,-0.8259,-0.8258,-0.8217,-0.8217,-0.8216,-0.8216,-0.8176,-0.8176,-0.8175,0,0,0,0,0,0,0,0,0,0,0,0,0,-0.8339,-0.8339,-0.8298,-0.8298,-0.8297,-0.8259,-0.8259,-0.8258,-0.8217,-0.8217,-0.8216,-0.8215,-0.8176,-0.8176,-0.8175,0,0,0,0,0,0,0,0,0,0,0,0,0,-0.8313,-0.8338,-0.8298,-0.8272,-0.827,-0.8259,-0.8259,-0.8258,-0.8218,-0.8217,-0.8216,-0.8215,-0.8176,-0.8176,-0.8175,-0.8187,0,0,-0.8173,-0.8172,0,0,0,0,0,0,0,0,-0.8314,-0.8311,-0.8277,-0.8274,-0.8271,-0.8242,-0.8259,-0.8234,-0.8218,-0.8237,-0.8216,-0.8215,-0.8199,-0.8196,-0.8191,-0.8186,-0.8184,-0.8173,-0.8172,-0.8172,-0.8171,0,0,0,0,0,0,0,-0.8316,-0.8313,-0.8283,-0.8276,-0.8273,-0.8263,-0.8259,-0.8254,-0.8223,-0.8236,-0.8233,-0.8228,-0.8197,-0.8192,-0.819,-0.8183,-0.8173,-0.8172,-0.8171,-0.8171,-0.8188,-0.8188,0,0,0,0,0,0,-0.8322,-0.8315,-0.8284,-0.8282,-0.8291,-0.8263,-0.8258,-0.8252,-0.8223,-0.8218,-0.8229,-0.8227,-0.8193,-0.819,-0.8188,-0.8201,-0.8172,-0.8171,-0.8171,-0.8187,-0.8188,-0.8189,0,0,0,0,0,0,-0.8323,-0.832,-0.8286,-0.8297,-0.8292,-0.8263,-0.8258,-0.8252,-0.8246,-0.8219,-0.8213,-0.8229,-0.8193,-0.8189,-0.8188,-0.8199,-0.8171,-0.817,-0.8186,-0.8187,-0.8188,-0.8227,0,0,0,0,0,0,-0.8324,-0.832,-0.8324,-0.8298,-0.8292,-0.8286,-0.8258,-0.8252,-0.8245,-0.8241,-0.8217,-0.8212,-0.8192,-0.8189,-0.8187,-0.8197,-0.8169,-0.8184,-0.8186,-0.8188,-0.8224,-0.8229,-0.8234,0,0,0,0,0,-0.8326,-0.8336,-0.8324,-0.8321,-0.8296,-0.8287,-0.8283,-0.826,-0.8246,-0.825,-0.8233,-0.8213,-0.8199,-0.819,-0.8187,-0.8197,-0.8184,-0.8186,-0.8188,-0.8222,-0.8228,-0.8234,0,0,0,0,0,0,-0.8364,-0.8332,-0.8319,-0.8321,-0.8307,-0.828,-0.8284,-0.8267,-0.8256,-0.8253,-0.8224,-0.8219,-0.8222,-0.8209,-0.82,-0.8208,-0.8188,-0.819,-0.8216,-0.8221,-0.8226,-0.8228,-0.8169,0,0,0,0,0,-0.8373,-0.8368,-0.834,-0.8345,-0.8339,-0.8313,-0.8308,-0.8291,-0.8275,-0.8269,-0.8251,-0.8237,-0.8229,-0.8225,-0.8216,-0.8223,-0.8217,-0.8229,-0.8233,-0.8237,-0.8239,-0.8242,-0.8247,-0.8195,-0.8195,-0.8195,0,0,-0.8391,-0.8373,-0.8371,-0.8352,-0.8339,-0.8335,-0.8308,-0.8304,-0.8301,-0.8268,-0.8266,-0.8253,-0.8235,-0.8239,-0.8239,-0.8229,-0.8252,-0.824,-0.8243,-0.8242,-0.8245,-0.825,-0.8254,-0.8197,-0.8197,-0.8196,0,0,-0.8421,-0.8407,-0.841,-0.8398,-0.8379,-0.8362,-0.8363,-0.8338,-0.8328,-0.8326,-0.8302,-0.8298,-0.8285,-0.8274,-0.8266,-0.8295,-0.8276,-0.8293,-0.8316,-0.832,-0.8324,-0.8328,-0.8338,-0.8342,-0.8295,-0.8295,-0.8295,0,-0.8446,-0.8438,-0.8413,-0.8411,-0.8404,-0.8375,-0.8378,-0.8368,-0.8347,-0.8343,-0.8332,-0.8316,-0.8302,-0.8302,-0.831,-0.8305,-0.8305,-0.8295,-0.8326,-0.8329,-0.8332,-0.8341,-0.8345,-0.8297,-0.8297,-0.8297,-0.8296,0,-0.8469,-0.8464,-0.8469,-0.845,-0.8443,-0.8444,-0.842,-0.8416,-0.8401,-0.8385,-0.8384,-0.8367,-0.8354,-0.8354,-0.8338,-0.8352,-0.8346,-0.8331,-0.831,-0.8339,-0.8347,-0.8351,-0.83,-0.8299,-0.8299,-0.8298,0,0,-0.8521,-0.8489,-0.8491,-0.8483,-0.8461,-0.8457,-0.8457,-0.8445,-0.8443,-0.843,-0.8429,-0.842,-0.8406,-0.8398,-0.8381,-0.8385,-0.8409,-0.8369,-0.8368,-0.8377,-0.8424,-0.8435,-0.844,-0.8397,-0.8398,-0.8398,-0.8425,0,-0.8547,-0.8544,-0.8523,-0.8526,-0.8522,-0.8496,-0.8496,-0.8483,-0.8469,-0.8464,-0.8449,-0.8443,-0.8424,-0.8419,-0.8422,-0.8406,-0.8418,-0.8403,-0.8396,-0.8396,-0.8401,-0.8444,-0.8455,-0.8482,-0.8429,-0.8429,-0.8429,0,-0.8576,-0.8566,-0.8569,-0.8548,-0.8545,-0.8546,-0.8534,-0.8529,-0.8514,-0.8504,-0.8496,-0.8478,-0.8477,-0.8459,-0.8457,-0.8448,-0.8444,-0.8436,-0.8437,-0.8434,-0.8414,-0.8442,-0.8489,-0.8493,-0.8434,-0.8434,-0.8434,0,-0.8613,-0.86,-0.86,-0.8594,-0.857,-0.8571,-0.8561,-0.8545,-0.854,-0.853,-0.8526,-0.8517,-0.8511,-0.8504,-0.8484,-0.8473,-0.8486,-0.8465,-0.8477,-0.8478,-0.848,-0.848,-0.8526,-0.8479,-0.8479,-0.8479,-0.8479,0,-0.8644,-0.8647,-0.8617,-0.8617,-0.862,-0.8596,-0.86,-0.8588,-0.8574,-0.8572,-0.855,-0.8548,-0.8522,-0.8518,-0.8503,-0.8504,-0.8502,-0.8494,-0.849,-0.8495,-0.8496,-0.8492,-0.8489,-0.848,-0.848,-0.848,-0.8479,0,-0.8685,-0.8665,-0.8663,-0.8641,-0.8636,-0.8639,-0.862,-0.8619,-0.8605,-0.8603,-0.8601,-0.8578,-0.8573,-0.8552,-0.8541,-0.8531,-0.8537,-0.853,-0.8542,-0.8539,-0.8552,-0.8551,-0.8596,-0.8601,-0.8552,-0.8552,-0.8553,0,-0.8705,-0.8707,-0.8685,-0.8682,-0.8673,-0.8668,-0.8663,-0.864,-0.8636,-0.862,-0.8622,-0.8615,-0.8607,-0.8599,-0.8582,-0.8574,-0.8566,-0.8582,-0.8564,-0.857,-0.8565,-0.8565,-0.8565,-0.8586,-0.8586,-0.8587,-0.8587,0,-0.8743,-0.8734,-0.8727,-0.8717,-0.8711,-0.8702,-0.8692,-0.8691,-0.8667,-0.8663,-0.8657,-0.8651,-0.8641,-0.8634,-0.8623,-0.8613,-0.8596,-0.8594,-0.8596,-0.8601,-0.8608,-0.8604,-0.8552,-0.8592,-0.8592,-0.8591,-0.8591,-0.8591,-0.8774,-0.8775,-0.8759,-0.8753,-0.8743,-0.8735,-0.8734,-0.872,-0.8714,-0.8703,-0.8691,-0.8687,-0.8673,-0.8657,-0.8649,-0.8646,-0.8636,-0.864,-0.864,-0.8641,-0.8644,-0.861,-0.8644,-0.8644,-0.8644,-0.8644,-0.8644,0,-0.8811,-0.88,-0.8794,-0.8781,-0.8776,-0.8762,-0.875,-0.8747,-0.8744,-0.8733,-0.8726,-0.872,-0.8713,-0.8697,-0.8689,-0.8689,-0.8681,-0.8688,-0.8687,-0.8685,-0.8653,-0.8652,-0.8694,-0.8694,-0.8694,-0.8694,-0.8694,-0.8694,-0.8829,-0.8829,-0.8818,-0.8814,-0.8804,-0.8799,-0.8794,-0.8786,-0.8778,-0.8771,-0.8766,-0.8755,-0.8742,-0.8734,-0.8727,-0.8723,-0.872,-0.873,-0.8722,-0.8692,-0.8687,-0.8683,-0.8681,-0.8729,-0.8729,-0.8754,-0.8755,-0.8755]},{"header":{"parameterUnit":"m.s-1","parameterCategory":1,"la1":30.2991,"la2":30.254,"lo1":-89.0895,"lo2":-89.0444,"dy":0.0017,"dx":0.0017,"nx":28,"ny":28,"refTime":"2025-02-25T03:00:00:Z","depth":0,"parameterNumber":3,"parameterNumberName":"V-component_of_WINDS"},"data":[0,0,0,0,0,0,0,0,0,0,0,0,0,0,0,0,0,0,0,0,0,0,0,0,0,0,0,0,0,0,0,0,0,0,0,0,0,0,0,0,0,0,0,0,0,0,0,0,0,0,0,0,0,0,0,0,0,0,1.4123,1.4123,0,1.4125,1.4125,1.4125,1.4111,1.411,1.411,1.4109,1.411,1.4111,1.4111,0,0,0,0,0,0,0,0,0,0,0,0,0,1.4107,1.4107,1.4123,1.4123,1.4123,1.4125,1.4125,1.4125,1.4111,1.411,1.411,1.4109,1.411,1.4111,1.4111,0,0,0,0,0,0,0,0,0,0,0,0,0,1.4112,1.4107,1.4123,1.4116,1.4116,1.4125,1.4125,1.4125,1.4111,1.411,1.411,1.4109,1.411,1.4111,1.4111,1.4127,0,0,1.4113,1.4114,0,0,0,0,0,0,0,0,1.4112,1.4112,1.4117,1.4117,1.4116,1.4117,1.412,1.4126,1.4111,1.4113,1.4109,1.4109,1.4113,1.4113,1.4115,1.4127,1.4127,1.4113,1.4114,1.4114,1.4114,0,0,0,0,0,0,0,1.4111,1.4112,1.4124,1.4117,1.4117,1.4113,1.4113,1.4121,1.4116,1.4112,1.4111,1.4112,1.4113,1.4115,1.4115,1.4127,1.4113,1.4114,1.4114,1.4114,1.4154,1.4155,0,0,0,0,0,0,1.4112,1.4112,1.4124,1.4124,1.4112,1.4114,1.4114,1.4117,1.4116,1.4115,1.4112,1.4111,1.4114,1.4114,1.4115,1.4135,1.4114,1.4114,1.4115,1.4154,1.4154,1.4155,0,0,0,0,0,0,1.4112,1.4113,1.4124,1.4118,1.4119,1.4115,1.4119,1.4118,1.412,1.4116,1.4115,1.4115,1.4113,1.4114,1.4125,1.4135,1.4115,1.4115,1.4153,1.4154,1.4155,1.4174,0,0,0,0,0,0,1.4111,1.4113,1.4119,1.4118,1.4119,1.4134,1.4119,1.4118,1.4121,1.4119,1.4118,1.4118,1.4113,1.4124,1.4125,1.4135,1.4116,1.4152,1.4153,1.4155,1.4172,1.4176,1.4178,0,0,0,0,0,1.4111,1.4124,1.4119,1.4121,1.4127,1.4134,1.4135,1.4129,1.4121,1.4128,1.4126,1.4118,1.4133,1.4125,1.4127,1.4137,1.4151,1.4153,1.4154,1.4171,1.4175,1.4178,0,0,0,0,0,0,1.4126,1.4124,1.4119,1.4132,1.4133,1.4132,1.4139,1.4133,1.4137,1.4135,1.4128,1.4128,1.414,1.4139,1.413,1.4153,1.4141,1.4143,1.4153,1.4157,1.4159,1.416,1.4116,0,0,0,0,0,1.413,1.4137,1.4135,1.4146,1.4147,1.4143,1.4146,1.4142,1.4143,1.4144,1.4142,1.4144,1.4149,1.4152,1.4157,1.4172,1.4172,1.418,1.4182,1.4185,1.4187,1.4196,1.42,1.416,1.416,1.416,0,0,1.414,1.414,1.4145,1.4149,1.415,1.4157,1.4144,1.4151,1.4157,1.4145,1.4155,1.4154,1.4155,1.4169,1.4174,1.4168,1.4198,1.4187,1.4189,1.419,1.4198,1.4202,1.4206,1.4161,1.4161,1.4161,0,0,1.4163,1.4163,1.4173,1.4175,1.4176,1.4173,1.4176,1.4175,1.4175,1.4185,1.4176,1.4182,1.4191,1.4193,1.4195,1.4219,1.4212,1.422,1.4236,1.4245,1.4248,1.4251,1.4261,1.4264,1.4222,1.4222,1.4222,0,1.4175,1.4186,1.4179,1.4188,1.4191,1.4181,1.4192,1.4193,1.4196,1.4198,1.4191,1.4203,1.4203,1.4218,1.4224,1.4225,1.4228,1.4221,1.4248,1.4251,1.4253,1.4263,1.4266,1.4223,1.4223,1.4223,1.4223,0,1.4202,1.4209,1.4217,1.4221,1.4225,1.4235,1.423,1.4235,1.423,1.4228,1.424,1.4239,1.4244,1.4247,1.4242,1.4261,1.4257,1.4249,1.4237,1.4258,1.4267,1.4271,1.4225,1.4224,1.4224,1.4224,0,0,1.4234,1.4235,1.4238,1.424,1.4241,1.4247,1.4257,1.4262,1.4267,1.4269,1.4277,1.4286,1.4279,1.4281,1.4276,1.4284,1.4305,1.4275,1.4275,1.4282,1.4328,1.4335,1.4339,1.43,1.4301,1.4301,1.4328,0,1.4257,1.4274,1.4269,1.4286,1.4294,1.4284,1.4293,1.4295,1.4293,1.4299,1.4297,1.4304,1.4294,1.4295,1.4302,1.4301,1.4314,1.4299,1.4309,1.4309,1.4311,1.4344,1.4351,1.4376,1.4331,1.4332,1.4332,0,1.4286,1.4291,1.4309,1.431,1.4313,1.4321,1.4326,1.4332,1.4334,1.4333,1.4336,1.433,1.434,1.4327,1.4341,1.4331,1.4334,1.4334,1.4335,1.4337,1.4323,1.4348,1.4384,1.4389,1.4337,1.4337,1.4337,0,1.431,1.432,1.4333,1.4335,1.4336,1.4342,1.4343,1.4345,1.4349,1.4353,1.4356,1.4361,1.4364,1.4368,1.4364,1.4355,1.4379,1.4366,1.4379,1.4379,1.4386,1.4386,1.4425,1.4386,1.4386,1.4385,1.4385,0,1.4337,1.4349,1.4344,1.4352,1.4366,1.436,1.4373,1.4372,1.4374,1.4382,1.4373,1.4381,1.4374,1.4381,1.4378,1.4391,1.4392,1.4392,1.4391,1.4393,1.4394,1.4397,1.4396,1.4386,1.4386,1.4386,1.4386,0,1.4367,1.4363,1.4377,1.4377,1.4378,1.4388,1.4388,1.4396,1.4394,1.4404,1.4406,1.4403,1.4411,1.4407,1.4415,1.4413,1.443,1.4426,1.443,1.443,1.4444,1.4443,1.4487,1.4494,1.4449,1.4449,1.445,0,1.4385,1.4394,1.4396,1.4401,1.4403,1.4411,1.4415,1.4409,1.4414,1.4418,1.4425,1.4433,1.4439,1.4452,1.4451,1.4457,1.4454,1.4469,1.4455,1.4458,1.4456,1.4457,1.4458,1.4472,1.4473,1.4473,1.4474,0,1.4419,1.4417,1.4424,1.443,1.4436,1.4441,1.4445,1.4449,1.4444,1.445,1.4458,1.4463,1.4472,1.448,1.4486,1.4486,1.448,1.4478,1.4482,1.4485,1.4488,1.4488,1.444,1.4477,1.4477,1.4477,1.4477,1.4476,1.4444,1.4453,1.4456,1.4464,1.4466,1.4471,1.4478,1.4478,1.4485,1.4492,1.4488,1.4498,1.4501,1.4508,1.451,1.4518,1.4512,1.4517,1.4519,1.4521,1.4524,1.4485,1.4519,1.4519,1.4519,1.4519,1.4519,0,1.4479,1.4481,1.4488,1.4495,1.4501,1.4494,1.4498,1.4505,1.4514,1.4517,1.4523,1.4534,1.4542,1.4541,1.4548,1.4555,1.4553,1.4558,1.4558,1.4559,1.4527,1.4524,1.456,1.456,1.456,1.456,1.456,1.456,1.4498,1.4513,1.4511,1.4527,1.4528,1.4539,1.4542,1.4546,1.4549,1.4561,1.4568,1.4568,1.457,1.4577,1.4584,1.4584,1.4588,1.4594,1.4593,1.4564,1.456,1.4557,1.4554,1.4595,1.4595,1.4624,1.4624,1.4624]}]]